Location: Oriwa
(40.7500°S, 175.3333°E)
Time: 14:14:57
(UTC+00:00)

ATLAS CENTAUR R/B - Pass Details

Date: 03 February 2023
Orbit: 449 x 650 km, 64.7° (Epoch: 28 March)

Event Time Altitude Azimuth Distance (km) Brightness Sun altitude
Exits shadow 16:27:23 - 353° (N) 1,842 3.6 -11.1°
Reaches altitude 10° 16:28:02 10° 356° (N) 1,590 3.3 -11.0°
Maximum altitude 16:31:17 36° 64° (ENE) 754 2.3 -10.5°
Drops below altitude 10° 16:34:40 10° 131° (SE) 1,657 5.3 -9.9°
Sets 16:36:58 0° 139° (SE) 2,570 6.4 -9.6°
